Weather History for Glasgow, KY

Change the Weather History Date:

Friday, December 7, 2012

  Actual Average Record
Temperature  
Mean Temperature 57 °F -  
Max Temperature 61 °F 49 °F 66 °F (1980)
Min Temperature 53 °F 31 °F 3 °F (1977)
Degree Days  
Heating Degree Days 8    
Growing Degree Days 7 (Base 50)    
Moisture  
Dew Point 50 °F    
Average Humidity 75    
Maximum Humidity 83    
Minimum Humidity 69    
Precipitation  
Precipitation 0.00 in - - ()
Sea Level Pressure  
Sea Level Pressure 29.94 in    
Wind  
Wind Speed 7 mph (SSW)    
Max Wind Speed 13 mph    
Max Gust Speed 23 mph    
Visibility 10 miles    
Events      
Averages and records for this station are not official NWS values.
T = Trace of Precipitation, MM = Missing Value Source: NWS Daily Summary

Daily Weather History Graph

Daily Weather History Graph

Search for Another Location

Airport:

Trip Planner

Search our weather history database for the weather conditions in past years. The results will help you decide how hot, cold, wet, or windy it might be!

Date:

Astronomy

Dec. 07, 2012 Rise Set
Actual Time 6:44 AM CST 4:26 PM CST
Civil Twilight 6:15 AM CST 4:55 PM CST
Nautical Twilight 5:43 AM CST 5:27 PM CST
Astronomical Twilight 5:11 AM CST 5:59 PM CST
Moon 12:10 AM CST (12/7) 12:16 PM CST (12/7)
Length of Visible Light 10h 40m
Length of Day
9h 42m
Last Quarter, 38% of the Moon is Illuminated
Dec 7
Last Quarter
Dec 13
New
Dec 19
First Quarter
Dec 28
Full
Jan 4
Last Quarter

Hourly Weather History & Observations

Time (CST) Temp. Dew Point Humidity Pressure Visibility Wind Dir Wind Speed Gust Speed Precip Events Conditions
12:15 AM 54.5 °F 47.7 °F 78% 29.99 in 10.0 mi South 6.9 mph - N/A   Overcast
12:35 AM 54.5 °F 46.9 °F 76% 29.99 in 10.0 mi South 5.8 mph - N/A   Mostly Cloudy
12:55 AM 54.0 °F 46.4 °F 76% 29.99 in 10.0 mi South 5.8 mph - N/A   Scattered Clouds
1:15 AM 54.0 °F 46.2 °F 75% 29.98 in 10.0 mi South 4.6 mph - N/A   Scattered Clouds
1:35 AM 53.8 °F 45.9 °F 75% 29.98 in 10.0 mi South 8.1 mph - N/A   Scattered Clouds
1:55 AM 53.8 °F 45.5 °F 74% 29.98 in 10.0 mi South 6.9 mph - N/A   Clear
2:15 AM 53.6 °F 45.5 °F 74% 29.98 in 10.0 mi South 6.9 mph - N/A   Clear
2:35 AM 53.4 °F 45.5 °F 75% 29.98 in 10.0 mi South 5.8 mph - N/A   Clear
2:55 AM 53.2 °F 45.5 °F 75% 29.98 in 10.0 mi South 6.9 mph - N/A   Clear
3:15 AM 53.6 °F 45.5 °F 74% 29.98 in 10.0 mi South 5.8 mph - N/A   Clear
3:35 AM 53.6 °F 45.5 °F 74% 29.97 in 10.0 mi South 6.9 mph - N/A   Clear
3:55 AM 53.4 °F 45.5 °F 75% 29.97 in 10.0 mi South 6.9 mph - N/A   Clear
4:15 AM 53.2 °F 45.5 °F 75% 29.97 in 10.0 mi South 6.9 mph - N/A   Mostly Cloudy
4:35 AM 53.4 °F 45.7 °F 75% 29.97 in 10.0 mi South 4.6 mph - N/A   Overcast
4:55 AM 53.6 °F 45.9 °F 75% 29.97 in 10.0 mi South 5.8 mph - N/A   Overcast
5:15 AM 53.6 °F 46.0 °F 76% 29.97 in 10.0 mi South 6.9 mph - N/A   Overcast
5:35 AM 53.6 °F 46.4 °F 77% 29.97 in 10.0 mi South 5.8 mph - N/A   Overcast
5:55 AM 53.6 °F 46.4 °F 77% 29.97 in 10.0 mi South 6.9 mph - N/A   Overcast
6:15 AM 53.6 °F 46.8 °F 78% 29.98 in 10.0 mi South 9.2 mph - N/A   Overcast
6:35 AM 53.8 °F 46.8 °F 77% 29.98 in 10.0 mi South 6.9 mph - N/A   Mostly Cloudy
6:55 AM 53.8 °F 46.9 °F 78% 29.98 in 10.0 mi South 6.9 mph - N/A   Mostly Cloudy
7:15 AM 54.0 °F 47.3 °F 78% 29.98 in 10.0 mi South 5.8 mph - N/A   Overcast
7:35 AM 54.1 °F 47.3 °F 78% 29.98 in 10.0 mi South 6.9 mph - N/A   Overcast
7:55 AM 54.3 °F 47.7 °F 78% 29.98 in 10.0 mi South 8.1 mph - N/A   Overcast
8:15 AM 54.7 °F 47.8 °F 78% 29.98 in 10.0 mi South 6.9 mph - N/A   Overcast
8:35 AM 55.0 °F 48.2 °F 78% 29.98 in 10.0 mi South 11.5 mph - N/A   Overcast
8:55 AM 55.9 °F 48.4 °F 76% 29.98 in 10.0 mi South 11.5 mph - N/A   Overcast
9:15 AM 57.7 °F 49.3 °F 73% 29.98 in 10.0 mi South 11.5 mph 18.4 mph N/A   Overcast
9:35 AM 58.5 °F 49.6 °F 72% 29.98 in 10.0 mi South 12.7 mph 20.7 mph N/A   Overcast
9:55 AM 59.5 °F 50.2 °F 71% 29.98 in 10.0 mi SW 11.5 mph 17.3 mph N/A   Overcast
10:15 AM 60.6 °F 50.4 °F 69% 29.97 in 10.0 mi SSW 12.7 mph 18.4 mph N/A   Overcast
10:35 AM 60.1 °F 50.4 °F 70% 29.97 in 10.0 mi SSW 10.4 mph - N/A   Overcast
10:55 AM 60.3 °F 50.7 °F 71% 29.96 in 10.0 mi SSW 12.7 mph - N/A   Overcast
11:15 AM 60.1 °F 50.9 °F 72% 29.95 in 10.0 mi SSW 8.1 mph - N/A   Overcast
11:35 AM 60.1 °F 51.1 °F 72% 29.94 in 10.0 mi SSW 12.7 mph 18.4 mph N/A   Overcast
11:55 AM 60.4 °F 51.1 °F 71% 29.93 in 10.0 mi SW 9.2 mph - N/A   Overcast
12:15 PM 60.6 °F 51.4 °F 72% 29.93 in 10.0 mi SW 11.5 mph 23.0 mph N/A   Overcast
12:35 PM 60.6 °F 51.8 °F 73% 29.92 in 10.0 mi SSW 9.2 mph 16.1 mph N/A   Overcast
1:15 PM 61.3 °F 51.8 °F 71% 29.90 in 10.0 mi SW 11.5 mph - N/A   Overcast
1:35 PM 61.0 °F 51.8 °F 72% 29.90 in 10.0 mi SSW 10.4 mph - N/A   Overcast
1:55 PM 61.0 °F 51.8 °F 72% 29.90 in 10.0 mi SSW 5.8 mph 9.2 mph N/A   Overcast
2:15 PM 61.2 °F 51.8 °F 71% 29.89 in 10.0 mi SSW 8.1 mph - N/A   Overcast
2:35 PM 61.3 °F 51.8 °F 71% 29.89 in 10.0 mi SSW 5.8 mph - N/A   Overcast
2:55 PM 61.3 °F 51.8 °F 71% 29.89 in 10.0 mi SSW 10.4 mph - N/A   Overcast
3:15 PM 61.7 °F 52.0 °F 70% 29.89 in 10.0 mi SSW 8.1 mph - N/A   Overcast
3:35 PM 61.7 °F 52.0 °F 70% 29.89 in 10.0 mi SSW 8.1 mph - N/A   Overcast
3:55 PM 61.3 °F 52.2 °F 72% 29.89 in 10.0 mi SSW 6.9 mph - N/A   Overcast
4:15 PM 61.2 °F 52.2 °F 72% 29.89 in 10.0 mi South 9.2 mph - N/A   Overcast
4:35 PM 61.0 °F 52.2 °F 73% 29.90 in 10.0 mi SW 6.9 mph - N/A   Overcast
4:55 PM 60.8 °F 52.2 °F 73% 29.90 in 10.0 mi SSW 6.9 mph - N/A   Overcast
5:15 PM 60.8 °F 52.2 °F 73% 29.90 in 10.0 mi SSW 6.9 mph - N/A   Overcast
5:35 PM 60.4 °F 52.2 °F 74% 29.90 in 10.0 mi SSW 5.8 mph - N/A   Overcast
5:55 PM 59.9 °F 52.0 °F 75% 29.89 in 10.0 mi SSW 5.8 mph - N/A   Overcast
6:15 PM 59.4 °F 52.0 °F 77% 29.89 in 10.0 mi SSW 4.6 mph - N/A   Mostly Cloudy
6:35 PM 59.0 °F 52.0 °F 78% 29.90 in 10.0 mi SSW 6.9 mph - N/A   Mostly Cloudy
7:15 PM 59.5 °F 52.5 °F 78% 29.91 in 10.0 mi SSW 5.8 mph - N/A   Overcast
7:35 PM 59.5 °F 52.7 °F 78% 29.91 in 10.0 mi SSW 5.8 mph - N/A   Overcast
7:55 PM 59.5 °F 53.1 °F 79% 29.91 in 10.0 mi SSW 6.9 mph - N/A   Overcast
8:15 PM 59.5 °F 53.1 °F 79% 29.92 in 10.0 mi SSW 6.9 mph - N/A   Overcast
8:35 PM 59.4 °F 53.2 °F 80% 29.92 in 10.0 mi SSW 6.9 mph - N/A   Overcast
8:55 PM 59.0 °F 53.1 °F 81% 29.91 in 10.0 mi SSW 5.8 mph - N/A   Mostly Cloudy
9:15 PM 58.5 °F 52.9 °F 82% 29.92 in 10.0 mi SSW 4.6 mph - N/A   Mostly Cloudy
9:55 PM 58.3 °F 53.1 °F 83% 29.91 in 10.0 mi SSW 5.8 mph - N/A   Overcast
10:15 PM 58.8 °F 53.1 °F 81% 29.91 in 10.0 mi SSW 6.9 mph - N/A   Overcast
10:35 PM 59.2 °F 53.1 °F 80% 29.92 in 10.0 mi SW 6.9 mph - N/A   Overcast
10:55 PM 59.2 °F 53.1 °F 80% 29.92 in 10.0 mi SSW 5.8 mph - N/A   Overcast
11:15 PM 59.0 °F 52.9 °F 80% 29.92 in 10.0 mi SSW 6.9 mph - N/A   Overcast
11:35 PM 58.5 °F 52.7 °F 81% 29.91 in 10.0 mi SSW 4.6 mph - N/A   Mostly Cloudy
11:55 PM 57.7 °F 52.7 °F 83% 29.91 in 10.0 mi SSW 4.6 mph - N/A   Scattered Clouds